This is the latest recevied weather packets stored in our database for station/object WW1TA. If no packets are shown the sender has not sent any weather packets the latest 10 day(s).
| Time | Temp. | Humidity | Pressure | Rain* | Wind** | Luminosity | Snow |
|---|---|---|---|---|---|---|---|
| 1777296657 | 12.22° C | 82% | 1024.1 hPa | 0 mm | - | 106 W/m² | - |
| 1777296028 | 12.22° C | 83% | 1024.1 hPa | 0 mm | - | 87 W/m² | - |
| 1777295726 | 12.22° C | 84% | 1024.1 hPa | 0 mm | - | 88 W/m² | - |
| 1777295423 | 12.22° C | 83% | 1024.2 hPa | 0 mm | - | 73 W/m² | - |
| 1777294817 | 12.22° C | 84% | 1024 hPa | 0 mm | - | 64 W/m² | - |
| 1777294512 | 12.22° C | 85% | 1024.1 hPa | 0 mm | - | 56 W/m² | - |
| 1777292997 | 11.67° C | 87% | 1024 hPa | 0 mm | - | 32 W/m² | - |
| 1777292692 | 11.67° C | 87% | 1023.9 hPa | 0 mm | - | 22 W/m² | - |
| 1777292388 | 11.67° C | 87% | 1023.7 hPa | 0 mm | - | 18 W/m² | - |
| 1777292085 | 11.67° C | 88% | 1023.7 hPa | 0 mm | - | 16 W/m² | - |
| 1777291782 | 11.67° C | 88% | 1023.8 hPa | 0 mm | - | 13 W/m² | - |
| 1777291175 | 11.67° C | 89% | 1023.6 hPa | 0 mm | - | 11 W/m² | - |
| 1777289961 | 11.67° C | 89% | 1023.4 hPa | 0 mm | - | 7 W/m² | - |
| 1777289353 | 11.67° C | 89% | 1023 hPa | 0 mm | - | 7 W/m² | - |
| 1777289049 | 11.67° C | 90% | 1022.9 hPa | 0 mm | - | 7 W/m² | - |
| 1777288746 | 11.67° C | 91% | 1022.9 hPa | 0 mm | - | 6 W/m² | - |
| 1777288444 | 11.67° C | 91% | 1022.8 hPa | 0 mm | - | 9 W/m² | - |
| 1777288139 | 11.67° C | 91% | 1022.7 hPa | 0 mm | - | 10 W/m² | - |
| 1777287836 | 11.67° C | 92% | 1022.5 hPa | 0 mm | - | 9 W/m² | - |
| 1777287533 | 11.67° C | 92% | 1022.4 hPa | 0 mm | - | 5 W/m² | - |
| 1777286926 | 11.67° C | 91% | 1022.1 hPa | 0 mm | - | 1 W/m² | - |
| 1777286319 | 11.67° C | 91% | 1022 hPa | 0 mm | - | 0 W/m² | - |
| 1777286017 | 11.67° C | 91% | 1022.1 hPa | 0 mm | - | 0 W/m² | - |
| 1777285714 | 11.67° C | 90% | 1022 hPa | 0 mm | - | 0 W/m² | - |
| 1777285412 | 12.22° C | 91% | 1021.9 hPa | 0 mm | - | 0 W/m² | - |
* Rain latest hour (hover to see other rain measurements)
** Current wind speed in m/s (hover to see current wind gust speed)